CAPE
0 0 0 0 0 0 0 0 0 0 0 0 0 0 0 2 0 1 4 6 9 14
0 0 0 0 0 0 0 0 0 0 0 0 0 0 0 0 0 1 0 0 1 5
0 0 0 0 0 0 0 0 0 0 0 0 0 0 0 0 0 0 0 0 0 1
0 0 0 0 0 0 0 0 0 0 0 0 0 0 0 0 0 6 1 0 0 12
0 0 0 0 0 0 0 0 0 0 0 0 0 0 0 0 0 0 0 0 0 1
0 0 0 0 0 0 0 0 0 0 0 0 0 1 0 0 0 0 0 0 0 3
0 0 0 0 0 0 0 0 0 0 0 0 0 0 0 0 0 0 0 0 0 0
0 0 0 0 0 0 0 0 0 0 0 0 0 0 0 0 0 0 0 0 0 0
0 0 0 0 0 0 0 0 0 0 0 0 0 30 7 0 0 0 0 0 0 0
0 0 0 0 0 0 0 0 0 0 0 0 0 45 33 3 0 0 0 0 0 0
0 0 0 0 0 0 0 0 0 0 0 0 0 18 22 0 0 0 0 0 0 0
0 0 0 0 0 0 0 0 0 0 0 0 0 2 7 0 0 0 0 0 0 0
0 0 0 0 0 0 0 0 0 0 0 0 0 0 17 2 0 0 0 0 0 0
0 0 0 0 0 0 0 0 0 0 0 0 0 0 3 5 0 0 0 0 0 0
CIN
-0 -0 -0 -0 -0 -0 -0 -0 -0 -0 -0 -0 -0 -0 -0 -0 -1 -1 -0 -2 -0 -3
-0 -0 -0 -0 -0 -0 -0 -0 -0 -0 -0 -0 -0 -0 -0 -0 -0 -9 -0 -0 -0 -0
-0 -0 -0 -0 -0 -0 -0 -0 -0 -0 -0 -0 -24 -0 -0 -0 -0 -23 -24 -0 -0 -10
-0 -0 -0 -0 -0 -0 -0 -0 -0 -0 -0 -0 -0 -0 -4 -0 -0 -19 -6 -0 -0 -0
-0 -0 -0 -0 -0 -0 -0 -0 -0 -0 -0 -0 -0 -0 -0 -1 -0 -0 -0 -0 -0 -0
-0 -0 -0 -0 -0 -0 -0 -0 -0 -0 -0 -0 -0 -20 -0 -0 -0 -0 -0 -0 -0 -14
-0 -0 -0 -0 -0 -0 -0 -0 -0 -0 -0 -0 -0 -0 -0 -0 -0 -0 -0 -0 -0 -0
-0 -0 -0 -0 -0 -0 -0 -0 -0 -0 -0 -0 -0 -0 -0 -0 -0 -0 -0 -0 -0 -0
-0 -0 -0 -0 -0 -0 -0 -0 -0 -0 -0 -0 -0 -0 -1 -0 -0 -0 -0 -0 -0 -0
-0 -0 -0 -0 -0 -0 -0 -0 -0 -0 -0 -0 -0 -0 -0 -0 -0 -0 -0 -0 -0 -0
-0 -0 -0 -0 -0 -0 -0 -0 -0 -0 -0 -0 -0 -0 -0 -0 -0 -0 -0 -0 -0 -0
-0 -0 -0 -0 -0 -0 -0 -0 -0 -0 -0 -0 -0 -2 -0 -1 -0 -0 -0 -0 -0 -0
-0 -0 -0 -0 -0 -0 -0 -0 -0 -0 -0 -0 -0 -0 -0 -0 -0 -0 -0 -0 -0 -0
-0 -0 -0 -0 -0 -0 -0 -0 -0 -0 -0 -0 -0 -0 -0 -0 -0 -0 -0 -0 -0 -0
Wind_Speed
6 3 4 4 4 4 4 5 5 7 7 7 8 9 9 7 7 8 7 10 8 3
6 6 5 6 5 4 5 5 7 7 7 7 6 7 7 6 7 7 6 7 8 5
6 6 6 5 6 6 6 6 7 8 7 7 6 6 6 5 6 7 6 6 7 6
6 6 6 5 6 6 6 6 7 7 7 7 8 7 5 6 7 8 8 8 8 8
5 5 6 6 6 6 6 6 6 6 9 7 7 7 6 6 6 7 7 8 8 9
6 6 6 6 6 6 6 6 6 6 7 9 8 7 6 5 6 6 5 6 7 9
6 6 6 6 6 6 6 6 7 6 6 8 9 5 5 5 6 6 6 6 6 7
5 5 6 6 6 6 6 6 6 7 8 6 7 4 1 5 5 6 6 6 6 6
6 5 5 6 6 6 6 6 6 7 6 8 8 11 10 6 5 5 5 6 6 6
4 5 5 5 5 6 6 5 6 6 6 7 8 20 11 10 3 4 5 6 6 7
4 4 5 5 5 5 4 5 4 5 6 6 7 17 11 12 5 5 6 6 6 6
3 3 4 5 5 3 3 4 4 4 6 6 7 17 14 6 4 5 6 6 6 6
4 3 1 2 3 3 2 3 4 5 5 8 6 13 16 10 3 5 4 6 6 13
4 4 3 2 2 2 3 4 4 5 6 6 6 7 13 14 2 1 4 4 5 5
Wind_Direction
337 331 318 315 321 314 311 311 309 325 328 332 340 351 353 351 357 4 355 5 342 321
336 347 331 331 335 314 320 331 334 328 326 332 336 340 351 355 351 354 352 358 347 356
324 338 333 336 339 338 322 332 333 335 336 331 329 340 354 338 350 358 357 350 344 351
330 339 334 336 329 328 326 333 335 332 333 339 338 331 337 353 358 10 5 354 350 358
338 344 342 332 328 330 328 331 329 333 349 337 333 329 333 344 0 2 354 348 349 355
344 346 335 328 328 331 327 321 332 341 350 327 326 328 345 353 355 352 350 339 343 348
336 327 316 320 336 325 325 323 322 326 334 340 337 324 346 359 354 352 349 343 341 336
318 330 327 338 326 330 340 326 325 328 333 340 323 304 16 5 343 346 340 336 340 333
331 327 324 331 330 336 343 348 348 345 329 332 337 345 33 35 355 340 337 330 332 333
321 323 325 327 345 343 347 349 352 344 344 336 329 344 22 20 357 336 327 324 329 328
328 318 338 345 351 344 355 351 332 333 339 339 325 340 17 17 352 338 321 316 315 310
298 313 344 354 344 339 358 344 330 314 341 329 321 339 2 30 350 334 322 314 320 319
273 262 329 317 337 313 331 318 333 341 336 327 321 329 344 11 338 329 328 328 334 342
281 267 231 276 283 311 344 341 348 342 320 315 312 318 333 357 348 314 333 333 326 323